Location: 10033 Water Well
(34.0865°N, 106.8959°W)
Time: 16:55:46
(UTC+00:00)

Cosmos 1452 Rocket - Pass Details

Date: 13 January 2026
Orbit: 762 x 771 km, 74.1° (Epoch: 10 February)

Event Time Altitude Azimuth Distance (km) Brightness Sun altitude
Rises 01:46:45 0° 204° (SSW) 3,214 7.3 -17.9°
Reaches altitude 10° 01:49:08 10° 207° (SSW) 2,293 6.5 -18.4°
Maximum altitude 01:54:18 64° 288° (WNW) 848 3.9 -19.5°
Drops below altitude 10° 01:59:30 10° 10° (N) 2,312 5.8 -20.5°
Enters shadow 01:59:34 10° 10° (N) 2,336 5.8 -20.5°
